[[{"header":{"parameterUnit":"m.s-1","parameterCategory":1,"la1":30.2992,"la2":30.254,"lo1":-89.0895,"lo2":-89.0443,"dy":0.0025,"dx":0.0025,"nx":19,"ny":19,"refTime":"2026-05-02T21:00:00:Z","depth":0,"parameterNumber":2,"parameterNumberName":"U-component_of_WINDS"},"data":[0,0,0,-1.8212,-1.8217,-1.8448,-1.8449,-1.8775,-1.8778,0,0,0,0,0,0,0,0,0,0,0,-1.8161,-1.8163,-1.8211,-1.8218,-1.8448,-1.8449,-1.8774,-1.8778,0,0,0,0,0,0,0,0,0,0,0,-1.8159,-1.8163,-1.8166,-1.8219,-1.8448,-1.8449,-1.8774,-1.8589,0,0,0,0,0,0,0,0,0,0,-1.836,-1.8329,-1.8162,-1.8166,-1.822,-1.8447,-1.8449,-1.858,-1.8601,-1.8683,0,-1.8759,0,-1.8774,-1.8802,-1.8803,0,0,0,-1.8206,-1.8311,-1.8358,-1.8167,-1.8222,-1.8447,-1.8341,-1.8591,-1.8615,-1.8711,-1.8764,-1.8775,-1.8779,-1.8804,-1.8806,-1.9318,-1.9321,0,0,-1.8193,-1.8212,-1.8342,-1.8374,-1.8338,-1.8333,-1.8348,-1.8605,-1.8664,-1.8765,-1.8782,-1.8785,-1.8806,-1.8809,-1.9315,-1.9319,0,0,0,-1.8165,-1.8204,-1.8243,-1.8361,-1.84,-1.834,-1.8357,-1.8653,-1.8664,-1.8785,-1.8788,-1.8808,-1.8813,-1.9312,-1.9317,-1.9483,0,0,0,-1.8156,-1.8187,-1.8238,-1.8252,-1.8396,-1.8529,-1.84,-1.8646,-1.8674,-1.8787,-1.8808,-1.8816,-1.9309,-1.9314,-1.9472,-1.9561,0,0,0,-1.814,-1.8185,-1.8223,-1.8252,-1.8352,-1.8524,-1.855,-1.8652,-1.8677,-1.8803,-1.8817,-1.9307,-1.9313,-1.9461,-1.9544,-1.9705,0,0,0,-1.8128,-1.8368,-1.8226,-1.8495,-1.835,-1.8623,-1.8548,-1.8751,-1.8878,-1.881,-1.9309,-1.9316,-1.9458,-1.9533,-1.9694,-1.9847,-1.9911,0,0,-1.8441,-1.8406,-1.8562,-1.8443,-1.8746,-1.8587,-1.8916,-1.9015,-1.901,-1.9216,-1.9229,-1.9475,-1.9543,-1.9702,-2.0254,-2.0305,0,0,0,-1.8668,-1.8782,-1.8858,-1.8979,-1.9059,-1.9137,-1.9183,-1.922,-1.9393,-1.9119,-1.9573,-1.9613,-1.9706,-1.9779,-1.9822,-1.9903,-1.9349,-1.9348,-1.9347,-1.9143,-1.9121,-1.938,-1.9387,-1.9506,-1.955,-1.9646,-1.9704,-1.9648,-1.9756,-1.9819,-2.0156,-2.0242,-2.0275,-2.0359,-1.9893,-1.9894,-1.9895,-1.9895,-1.9603,-1.9763,-1.9681,-1.9904,-1.9881,-2.0068,-2.012,-2.0074,-2.0248,-2.0107,-2.0188,-2.0041,-2.0331,-2.0404,-1.9907,-1.9905,-1.9904,-1.9903,-1.9902,-1.9917,-1.999,-2.0028,-2.0202,-2.0338,-2.0335,-2.0506,-2.0477,-2.0452,-2.0531,-2.0598,-2.0595,-2.0594,-2.0564,-2.0565,-2.0566,-2.0567,-2.0568,-2.0569,-2.0229,-2.0267,-2.0413,-2.0517,-2.0591,-2.0686,-2.0731,-2.0805,-2.088,-2.0846,-2.0847,-2.0785,-2.036,-2.0258,-2.0587,-2.0584,-2.0581,-2.058,-2.0578,-2.0715,-2.06,-2.0826,-2.0901,-2.1021,-2.116,-2.1119,-2.1272,-2.1327,-2.1413,-2.1331,-2.102,-2.0984,-2.0949,-2.0865,-2.1331,-2.1331,-2.1331,-2.1331,-2.0985,-2.096,-2.1186,-2.1308,-2.1423,-2.1409,-2.1668,-2.1705,-2.1727,-2.1761,-2.1688,-2.1571,-2.1536,-2.1521,-2.1474,-2.1395,-2.1985,-2.1986,-2.1986,-2.1285,-2.1271,-2.1497,-2.1513,-2.1605,-2.1685,-2.1929,-2.2074,-2.2073,-2.2013,-2.1788,-2.1761,-2.1572,-2.151,-2.1451,-2.1379,-2.1233,0,0]},{"header":{"parameterUnit":"m.s-1","parameterCategory":1,"la1":30.2992,"la2":30.254,"lo1":-89.0895,"lo2":-89.0443,"dy":0.0025,"dx":0.0025,"nx":19,"ny":19,"refTime":"2026-05-02T21:00:00:Z","depth":0,"parameterNumber":3,"parameterNumberName":"V-component_of_WINDS"},"data":[0,0,0,-2.874,-2.8743,-2.8876,-2.8877,-2.9049,-2.9051,0,0,0,0,0,0,0,0,0,0,0,-2.8703,-2.8705,-2.874,-2.8744,-2.8876,-2.8877,-2.9049,-2.9051,0,0,0,0,0,0,0,0,0,0,0,-2.8703,-2.8704,-2.8706,-2.8744,-2.8876,-2.8877,-2.9048,-2.8947,0,0,0,0,0,0,0,0,0,0,-2.8817,-2.8786,-2.8704,-2.8706,-2.8745,-2.8876,-2.8877,-2.8942,-2.8953,-2.899,0,-2.9024,0,-2.904,-2.9062,-2.9063,0,0,0,-2.8741,-2.8777,-2.881,-2.8706,-2.8746,-2.8876,-2.8816,-2.8948,-2.8961,-2.9005,-2.9027,-2.9033,-2.9043,-2.9063,-2.9064,-2.9284,-2.9285,0,0,-2.8734,-2.8729,-2.8802,-2.8819,-2.88,-2.8812,-2.882,-2.8956,-2.8979,-2.9027,-2.9037,-2.9046,-2.9065,-2.9066,-2.9283,-2.9285,0,0,0,-2.8714,-2.8724,-2.8754,-2.8812,-2.8836,-2.8815,-2.8825,-2.8973,-2.8983,-2.9039,-2.9048,-2.9066,-2.9068,-2.9282,-2.9284,-2.9334,0,0,0,-2.871,-2.8712,-2.8751,-2.8749,-2.8833,-2.8906,-2.8839,-2.8974,-2.8989,-2.9047,-2.9066,-2.9069,-2.9281,-2.9283,-2.933,-2.9359,0,0,0,-2.8694,-2.871,-2.873,-2.8748,-2.8805,-2.8904,-2.8922,-2.8977,-2.8995,-2.9063,-2.907,-2.928,-2.9283,-2.9327,-2.9353,-2.9415,0,0,0,-2.8675,-2.8774,-2.8731,-2.8845,-2.8804,-2.8935,-2.8922,-2.9019,-2.9083,-2.9067,-2.9281,-2.9284,-2.9326,-2.935,-2.9411,-2.9466,-2.9489,0,0,-2.8797,-2.8788,-2.8855,-2.8821,-2.8958,-2.8915,-2.9059,-2.9123,-2.9134,-2.9233,-2.9239,-2.9332,-2.9353,-2.9414,-2.9617,-2.9634,0,0,0,-2.8892,-2.894,-2.8977,-2.9039,-2.909,-2.9135,-2.9178,-2.9201,-2.9285,-2.9184,-2.9371,-2.9384,-2.942,-2.9446,-2.9462,-2.9493,-2.9296,-2.9295,-2.9295,-2.9056,-2.9065,-2.9176,-2.9201,-2.926,-2.9301,-2.935,-2.9388,-2.938,-2.9423,-2.9453,-2.9575,-2.9606,-2.9617,-2.965,-2.9483,-2.9483,-2.9483,-2.9483,-2.9235,-2.9304,-2.929,-2.9392,-2.94,-2.9486,-2.9529,-2.952,-2.96,-2.9554,-2.9586,-2.9534,-2.9637,-2.9665,-2.9487,-2.9487,-2.9486,-2.9486,-2.9486,-2.9344,-2.9378,-2.9405,-2.9493,-2.9559,-2.958,-2.9657,-2.9662,-2.9666,-2.9698,-2.9729,-2.9729,-2.9728,-2.9713,-2.9713,-2.9713,-2.9714,-2.9714,-2.9714,-2.9446,-2.9474,-2.954,-2.9601,-2.964,-2.9691,-2.9733,-2.9771,-2.9814,-2.9811,-2.9811,-2.9798,-2.9645,-2.9607,-2.9721,-2.972,-2.9719,-2.9718,-2.9718,-2.9624,-2.9584,-2.9685,-2.9724,-2.9795,-2.986,-2.9864,-2.9941,-2.9973,-3.001,-2.999,-2.9876,-2.9868,-2.9856,-2.9824,-2.9988,-2.9988,-2.9988,-2.9988,-2.9716,-2.9712,-2.9815,-2.9877,-2.9938,-2.9951,-3.0063,-3.0095,-3.0122,-3.0142,-3.0119,-3.0077,-3.0064,-3.0063,-3.0047,-3.0017,-3.0226,-3.0227,-3.0227,-2.9825,-2.9827,-2.9923,-2.9949,-3.0004,-3.0051,-3.0157,-3.0227,-3.0249,-3.0237,-3.0157,-3.0147,-3.008,-3.0057,-3.0044,-3.0018,-2.9964,0,0]}]]